Nashville, TN

3:38 AM CDT on July 21, 2019 (GMT -0500)
Nashville International

Weather History for KBNA - May, 2019

Change the Weather History Date:

Saturday, May 4, 2019

  Actual Average Record
Temperature  
Mean Temperature 69 °F 64 °F  
Max Temperature 74 °F 75 °F 90 °F (1902)
Min Temperature 64 °F 53 °F 34 °F (1976)
Degree Days  
Heating Degree Days 0    
Month to date heating degree days 0  
Since 1 July heating degree days 3193  
Cooling Degree Days 4    
Month to date cooling degree days 29  
Year to date cooling degree days 88  
Growing Degree Days 18 (Base 50)    
Moisture  
Dew Point 62 °F    
Average Humidity 82    
Maximum Humidity 93    
Minimum Humidity 64    
Precipitation  
Precipitation 0.29 in 0.19 in 3.28 in (1944)
Month to date precipitation 0.60 0.74  
Year to date precipitation 28.48 16.54  
Sea Level Pressure  
Sea Level Pressure 29.85 in    
Wind  
Wind Speed 4 mph (NNW)    
Max Wind Speed 12 mph    
Max Gust Speed 15 mph    
Visibility 8 miles    
Events Rain    
T = Trace of Precipitation, MM = Missing Value Source: NWS Daily Summary

Daily Weather History Graph

Daily Weather History Graph

Search for Another Location

Airport or City:

Astronomy

May. 04, 2019 Rise Set
Actual Time 5:50 AM CDT 7:36 PM CDT
Civil Twilight 5:23 AM CDT 8:04 PM CDT
Nautical Twilight 4:49 AM CDT 8:37 PM CDT
Astronomical Twilight 4:14 AM CDT 9:13 PM CDT
Moon 5:58 AM CDT (5/4) 7:27 PM CDT (5/4)
Length of Visible Light 14h 41m
Length of Day
13h 45m
Waning Crescent, 0% of the Moon is Illuminated
May 4
Waning Crescent
May 4
New
May 11
First Quarter
May 18
Full
May 26
Last Quarter

Hourly Weather History & Observations

Time (CDT) Temp. Dew Point Humidity Pressure Visibility Wind Dir Wind Speed Gust Speed Precip Events Conditions
12:53 AM 66.9 °F 62.1 °F 84% 29.92 in 10.0 mi Calm Calm - N/A   Overcast
1:53 AM 66.0 °F 62.1 °F 87% 29.92 in 10.0 mi Calm Calm - N/A   Overcast
2:53 AM 66.9 °F 63.0 °F 87% 29.91 in 10.0 mi North 4.6 mph - 0.00 in   Mostly Cloudy
3:53 AM 66.0 °F 62.1 °F 87% 29.90 in 9.0 mi North 3.5 mph - N/A   Overcast
4:53 AM 64.9 °F 62.1 °F 90% 29.89 in 9.0 mi Calm Calm - N/A   Overcast
5:53 AM 64.9 °F 62.1 °F 90% 29.90 in 6.0 mi Calm Calm - 0.00 in Rain Light Rain
6:53 AM 66.0 °F 62.1 °F 87% 29.89 in 8.0 mi Calm Calm - 0.00 in   Mostly Cloudy
7:53 AM 68.0 °F 62.1 °F 81% 29.89 in 10.0 mi Calm Calm - N/A   Mostly Cloudy
8:18 AM 68.0 °F 62.1 °F 81% 29.91 in 10.0 mi Calm Calm - N/A   Mostly Cloudy
8:53 AM 68.0 °F 63.0 °F 84% 29.91 in 9.0 mi South 8.1 mph - 0.00 in Rain Light Rain
9:05 AM 68.0 °F 63.0 °F 84% 29.92 in 7.0 mi South 8.1 mph - 0.00 in Rain Light Rain
9:53 AM 68.0 °F 64.0 °F 87% 29.90 in 7.0 mi South 6.9 mph - 0.02 in Rain Light Rain
10:53 AM 70.0 °F 64.0 °F 81% 29.88 in 10.0 mi SE 5.8 mph - 0.01 in Rain Light Rain
11:51 AM 69.8 °F 64.4 °F 83% 29.87 in 10.0 mi Calm Calm - 0.00 in   Overcast
11:53 AM 71.1 °F 64.0 °F 78% 29.86 in 10.0 mi Calm Calm - 0.00 in   Overcast
12:14 PM 71.1 °F 63.0 °F 75% 29.87 in 10.0 mi South 3.5 mph - N/A   Overcast
12:53 PM 71.1 °F 63.0 °F 75% 29.85 in 10.0 mi SSW 4.6 mph - N/A   Overcast
1:53 PM 73.0 °F 63.0 °F 71% 29.84 in 10.0 mi WSW 5.8 mph - N/A   Overcast
2:53 PM 73.9 °F 63.0 °F 68% 29.81 in 10.0 mi SW 4.6 mph - N/A   Mostly Cloudy
3:53 PM 72.0 °F 61.0 °F 68% 29.80 in 10.0 mi WNW 6.9 mph - N/A   Overcast
4:53 PM 73.0 °F 61.0 °F 66% 29.79 in 10.0 mi NW 4.6 mph - N/A   Overcast
5:53 PM 70.0 °F 61.0 °F 73% 29.77 in 10.0 mi WNW 10.4 mph - N/A   Overcast
6:53 PM 66.0 °F 62.1 °F 87% 29.78 in 4.0 mi NW 6.9 mph - 0.03 in Rain Light Rain
7:53 PM 64.9 °F 62.1 °F 90% 29.79 in 5.0 mi NNW 3.5 mph - 0.04 in Rain Light Rain
8:22 PM 64.9 °F 62.1 °F 90% 29.81 in 6.0 mi NNE 3.5 mph - 0.04 in Rain Light Rain
8:45 PM 64.9 °F 62.1 °F 90% 29.81 in 6.0 mi NNE 4.6 mph - 0.07 in Rain Light Rain
8:53 PM 64.9 °F 62.1 °F 90% 29.80 in 6.0 mi NNE 5.8 mph - 0.08 in Rain Light Rain
9:14 PM 64.9 °F 62.1 °F 90% 29.81 in 6.0 mi NNE 5.8 mph - 0.03 in Rain Light Rain
9:53 PM 64.9 °F 62.1 °F 90% 29.79 in 8.0 mi NNE 8.1 mph - 0.05 in Rain Light Rain
10:15 PM 64.9 °F 61.0 °F 87% 29.80 in 8.0 mi NNE 11.5 mph - 0.02 in Rain Light Rain
10:53 PM 64.0 °F 61.0 °F 90% 29.77 in 6.0 mi NNE 6.9 mph - 0.05 in Rain Light Rain
11:25 PM 64.0 °F 61.0 °F 90% 29.78 in 9.0 mi North 5.8 mph - 0.01 in Rain Light Rain
11:53 PM 64.0 °F 61.0 °F 90% 29.77 in 10.0 mi North 5.8 mph - 0.01 in   Overcast